Location: Chiroubles
(46.1812°N, 4.6660°E)
Time: 01:47:08
(UTC+00:00)

DNEPR-1 R/B - Pass Details

Date: 15 August 2020
Orbit: 572 x 1350 km, 64.6° (Epoch: 19 September)

Event Time Altitude Azimuth Distance (km) Brightness Sun altitude
Rises 23:06:31 0° 323° (NW) 3,661 8.4 -29.5°
Reaches altitude 10° 23:09:21 10° 327° (NNW) 2,581 7.5 -29.6°
Enters shadow 23:14:44 60° 22° (NNE) 887 4.4 -29.8°
